Regional Weather Roundup
Issued by NWS Sioux Falls, SD

Home | Current Version | Previous Version | Text Only | Print | Product List | Glossary On
Versions: 1 2 3 4 5 6 7 8 9 10 11 12 13 14 15 16 17 18 19 20 21 22 23 24 25 26 27 28 29 30 31 32 33 34 35 36 37 38 39 40 41 42 43 44 45 46 47 48 49 50
000
ASUS43 KFSD 170810
RWRFSD

WEATHER ROUNDUP FOR SE SOUTH DAKOTA/SW MINNESOTA/NW IOWA
NATIONAL WEATHER SERVICE SIOUX FALLS SD
300 AM CDT WED SEP 17 2014

NOTE: "FAIR" INDICATES FEW OR NO CLOUDS BELOW 12,000 FEET WITH NO
SIGNIFICANT WEATHER AND OR OBSTRUCTIONS TO VISIBILITY.


SDZ038>040-050-052>070-170900-
SOUTHEAST SOUTH DAKOTA

CITY           SKY/WX    TMP DP  RH WIND       PRES   REMARKS
CHAMBERLAIN    CLEAR     53  53  99 CALM      29.91S
HURON          MOCLDY    53  51  93 SE5       29.90S
MADISON        FAIR      54  54 100 S8        29.94S
MITCHELL       PTCLDY    51  50  96 SE6       29.92R
SIOUX FALLS    CLOUDY    58  50  75 S5        29.95S
WINNER         FAIR      61  56  83 SW7       29.91F
YANKTON        CLEAR     54  48  82 SE6       29.94F
$$

MNZ071-072-080-081-089-090-097-098-170900-
SOUTHWEST MINNESOTA

CITY           SKY/WX    TMP DP  RH WIND       PRES   REMARKS
FAIRMONT       CLOUDY    52  45  76 S6        29.99S
JACKSON        CLOUDY    55  46  71 S7        29.98F
LUVERNE        MOCLDY    54  50  87 CALM      29.97S
MARSHALL       PTCLDY    57  48  72 S9        29.92F
MONTEVIDEO     PTCLDY    55  50  82 S5        29.94S
PIPESTONE      PTCLDY    54  48  82 S5        29.95F
REDWOOD FALLS  CLOUDY    57  51  80 S8        29.94F
TRACY          CLOUDY    59  50  73 S8        29.95F
WINDOM         CLOUDY    57  48  72 S3        29.97F
WORTHINGTON    CLOUDY    55  48  76 S7        29.98S
$$

IAZ001>003-012>014-020>022-031-032-NEZ013-014-SDZ071-170900-
NORTHWEST IOWA

CITY           SKY/WX    TMP DP  RH WIND       PRES   REMARKS
CHEROKEE       CLOUDY    54  51  90 S5        29.98S
DENISON        CLOUDY    57  52  82 SE3       29.97S
ESTHERVILLE    CLOUDY    52  50  93 S6        29.98F
LE MARS          N/A     57  52  82 CALM      29.96F
ORANGE CITY    PTCLDY    57  48  72 SE5       29.96F
SHELDON        MOCLDY    52  50  93 SE3       29.95F
SIOUX CITY     CLOUDY    58  53  84 SE6       29.96F
SPENCER        CLOUDY    54  48  80 CALM      29.98F
STORM LAKE     MOCLDY    48  48 100 S7        29.99S
$$

ABBREVIATIONS USED IN REMARKS
   TC - TEMPERATURE IN CELSIUS
  WCI - WIND CHILL INDEX
   HX - HEAT INDEX
  VSB - VISIBILITY



USA.gov is the U.S. government's official web portal to all federal, state and local government web resources and services.